This demonstration page uses our WeatherBlox Daily Observations layout. Learn more.

Left ArrowRight Arrow

39.01783, -85.05884

Hourly Observations for March 24, 2018

Temp ( °F °C ) Dew Point ( °F °C ) Humidity (%) Winds ( mph kmh ) Pressure ( in mb ) Visibility ( mi km ) Precip ( " mm )
12:52 am 00:52 Mostly Cloudy 35 1.7 23 -5 61 61 E 8 13 30.24 1024 10 16 N/A
1:52 am 01:52 Mostly Cloudy 35 1.7 23 -5 61 61 E 6 9 30.24 1024 10 16 N/A
2:52 am 02:52 Mostly Cloudy 36 2.2 24 -4.4 62 62 E 8 13 30.21 1023 10 16 N/A
3:52 am 03:52 Cloudy 37 2.8 24 -4.4 59 59 E 10 17 30.22 1023 10 16 N/A
4:52 am 04:52 Cloudy 36 2.2 24 -4.4 62 62 E 10 17 30.21 1023 10 16 N/A
5:52 am 05:52 Cloudy 35 1.7 24 -4.4 64 64 E 13 20 30.20 1023 10 16 N/A
6:52 am 06:52 Cloudy 35 1.7 23 -5 61 61 E 16 26 30.19 1022 10 16 N/A
7:52 am 07:52 Cloudy 35 1.7 22 -5.6 59 59 E 14 22 30.18 1022 10 16 N/A
8:52 am 08:52 Cloudy 35 1.7 21 -6.1 57 57 E 14 22 30.18 1022 10 16 N/A
9:10 am 09:10 Windy with Snow Likely 34 1.1 24 -4.4 67 67 E 20 31 30.24 1024 3 4 N/A
9:15 am 09:15 Cloudy with Light Snow 33 0.6 25 -3.9 72 72 E 18 30 30.21 1023 2 2 N/A
9:31 am 09:31 Cloudy with Light Snow 31 -0.6 28 -2.2 89 89 E 18 30 30.21 1023 1 1 N/A
9:52 am 09:52 Cloudy with Light Snow 31 -0.6 29 -1.7 92 92 E 17 28 30.16 1022 1 2 0.01 0.25
10:19 am 10:19 Cloudy with Light Snow 31 -0.6 29 -1.7 92 92 E 14 22 30.21 1023 2 2 0.01 0.25
10:36 am 10:36 Cloudy with Light Snow 31 -0.6 29 -1.7 92 92 E 14 22 30.21 1023 1 1 0.02 0.51
10:52 am 10:52 Cloudy with Light Snow 31 -0.6 30 -1.1 96 96 E 12 19 30.16 1021 1 2 0.03 0.76
11:03 am 11:03 Cloudy with Light Snow 31 -0.6 30 -1.1 96 96 E 13 20 30.21 1023 1 2 0.01 0.25
11:29 am 11:29 Cloudy with Light Snow 31 -0.6 30 -1.1 96 96 E 15 24 30.21 1023 1 1 0.02 0.51
11:52 am 11:52 Cloudy with Light Snow 31 -0.6 30 -1.1 96 96 E 13 20 30.16 1022 1 2 0.04 1.02
12:52 pm 12:52 Cloudy with Snow 32 undefined 31 -0.6 96 96 E 10 17 30.15 1021 1 1 0.03 0.76
1:52 pm 13:52 Cloudy with Snow 32 undefined 32 undefined 100 100 E 15 24 30.11 1020 1 1 0.07 1.78
2:49 pm 14:49 Cloudy with Light Snow 32 undefined 30 -1 93 93 E 17 28 30.12 1020 2 3 0.03 0.76
2:52 pm 14:52 Cloudy with Light Snow 32 undefined 32 undefined 100 100 E 15 24 30.07 1018 3 4 0.03 0.76
3:02 pm 15:02 Windy with Snow Likely 33 0.6 32 undefined 96 96 E 20 31 30.09 1019 3 5 N/A
3:20 pm 15:20 Cloudy with Light Snow 33 0.6 32 undefined 96 96 E 16 26 30.09 1019 3 5 N/A
3:52 pm 15:52 Cloudy with Light Snow 33 0.6 31 -0.6 92 92 ENE 15 24 30.10 1019 3 5 N/A
3:56 pm 15:56 Windy with Snow Likely 33 0.6 31 -0.6 92 92 E 23 37 30.12 1020 2 2 N/A
4:22 pm 16:22 Cloudy with Light Snow 33 0.6 31 -0.6 92 92 E 17 28 30.12 1020 1 1 0.03 0.76
4:38 pm 16:38 Cloudy with Snow 32 undefined 32 undefined 100 100 E 15 24 30.12 1020 1 1 0.05 1.27
4:52 pm 16:52 Cloudy with Light Snow 32 undefined 31 -0.6 96 96 E 16 26 30.07 1018 1 1 0.07 1.78
5:43 pm 17:43 Cloudy with Light Snow 32 undefined 32 undefined 100 100 E 12 19 30.12 1020 1 1 0.08 2.03
5:52 pm 17:52 Cloudy with Snow 32 undefined 32 undefined 100 100 ENE 9 15 30.07 1018 1 1 0.11 2.79
6:33 pm 18:33 Cloudy with Light Snow 32 undefined 31 -0.6 96 96 ESE 13 20 30.09 1019 3 5 0.04 1.02
6:52 pm 18:52 Cloudy 32 undefined 31 -0.6 96 96 E 13 20 30.03 1017 9 14 0.04 1.02
7:52 pm 19:52 Cloudy 33 0.6 31 -0.6 92 92 NE 9 15 30.09 1019 8 13 N/A
8:52 pm 20:52 Cloudy 34 1.1 30 -1.1 85 85 ENE 7 11 30.09 1019 10 16 N/A
9:52 pm 21:52 Cloudy 35 1.7 30 -1.1 82 82 NE 13 20 30.09 1019 10 16 N/A
10:52 pm 22:52 Cloudy 36 2.2 28 -2.2 73 73 NE 10 17 30.11 1020 10 16 N/A
11:52 pm 23:52 Cloudy 37 2.8 28 -2.2 70 70 NE 14 22 30.11 1020 10 16 N/A

Powered by AerisWeather